FENGYUN 1C DEB

Satellite information

Favourite Embed

Satellite Type and Status

DEBRISIN ORBIT

Key statistics

Satellite FENGYUN 1C DEB at a glance.

Uptime

9617

Days in orbit

Revolutions

≈ 14.4

Per day

Orbit

SSO

Sun Synchronous Orbit

Inclination

98.4

Latest

Satellite identification and parameters

Extended collection of information and parameters for FENGYUN 1C DEB.

Object identification

Identified? True

Debris? True

Object name: FENGYUN 1C DEB

International designator: 1999-025NP

Object number (NORAD): 30038

Object ID (CCSDS): 30038

Country: PEOPLES REPUBLIC OF CHINA (PRC)

Current information (Y/N): Y

RCS size: SMALL

Orbital parameters

Period: 100.076 minutes

Inclination: 98.3596 deg

SMA: 7140.265 km

Apoapsis: 947.013 km

Periapsis: 577.248 km

RAAN: 239.7808 deg

Eccentricy: 0.0258929

Argument of periapsis: 34.1958 deg

Mean anomaly: 33.2481 deg

Mean motion: 14.38902055 rev/day

Mean motion (dot): 0.00003512 rev/day2

B* drag term: 0.00078097867 1/REarth

Two-line elements (TLE)

Creation date: Sept. 7, 2025, 3:09 a.m.

Reference frame: TEME

Reference center: EARTH

Epoch: Sept. 6, 2025, 9:48 p.m. UTC

TLE line 0: 0 FENGYUN 1C DEB

TLE line 1: 1 30038U 99025NP 25249.90889980 .00003512 00000-0 78098-3 0 9998

TLE line 2: 2 30038 98.3596 239.7808 0258929 34.1958 33.2481 14.38902055974983

Live tracking on map

Real-time ground track for satellite FENGYUN 1C DEB.

In-orbit conjunctions

A list of the most updated potential collisions computed for object FENGYUN 1C DEB.

Target Orbit TCA Probability of collision Miss distance Type
PSLV DEB SSO 2025-03-08 15:42:04 0.0001329172 426.0 (m) DEBRIS
FENGYUN 1C DEB SSO 2025-01-04 18:45:59 0.0001170202 82.0 (m) DEBRIS
FENGYUN 1C DEB SSO 2024-11-15 17:23:12 0.0001412812 944.0 (m) DEBRIS
COSMOS 2251 DEB LEO 2024-11-09 07:25:32 0.0002003523 896.0 (m) DEBRIS

Associated space launch

Chinese polar orbiting meteorological satellite

FENGYUN 1C DEB was lifted into orbit during the mission ‘Long March 4B | Feng Yun 1C’, on board a Long March 4B space rocket.

The launch took place on May 10, 1999, 1:33 a.m. from Launch Complex 7.

For more information about the launch, click the button.

Launch to space Long March 4B | Feng Yun 1C
Long March 4B | Feng Yun 1C

Agency: N/A

Status: Launch Successful

Launch date: May 10, 1999, 1:33 a.m. UTC

Rocket: Long March 4B

Launch pad: Launch Complex 7

Location: Taiyuan Satellite Launch Center, People's Republic of China

...

Latest news about this satellite

There are no fresh news available about this satellite. Check back as we update our databases every day.


Newsletter sign-up

Weekly statistics, charts and insights to help you stay on top of the space industry.